Regional Weather Roundup
Issued by NWS Charleston, SC

Current Version | Previous Version | Text Only | Print | Product List | Glossary On
Versions: 1 2 3 4 5 6 7 8 9 10 11 12 13 14 15 16 17 18 19 20 21 22 23 24 25 26 27 28 29 30 31 32 33 34 35 36 37 38 39 40 41 42 43 44 45 46 47 48 49 50
033
ASUS42 KCHS 302113
RWRCHS

REGIONAL WEATHER ROUNDUP
NATIONAL WEATHER SERVICE CHARLESTON SC
500 PM EDT SAT APR 30 2016

NOTE: "FAIR" INDICATES FEW OR NO CLOUDS BELOW 12,000 FEET WITH NO
SIGNIFICANT WEATHER AND/OR OBSTRUCTIONS TO VISIBILITY.

NOT ALL STATIONS ARE QUALITY CONTROLLED. USE DATA WITH CAUTION...
ESPECIALLY DEWPOINT OBSERVATIONS.

SCZ027-030-031-034>040-042>050-302200-
...SOUTHEAST SOUTH CAROLINA...

CITY           SKY/WX    TMP DP  RH WIND       PRES   REMARKS
N CHARLESTON   PTSUNNY   81  68  64 S14       30.01F
WATERFRONT PRK   N/A     76  72  87 SE10      30.01F
MOUNT PLEASANT FAIR      79  72  78 SE8G17    30.02F
JOHNS ISLAND   MOCLDY    79  73  83 E10       30.02F
PINOPOLIS        N/A     86  66  51 VRB3      29.93F
MONCKS CORNER  MOCLDY    79  63  57 SE9G17    30.01F
SUMMERVILLE    FAIR      84  64  51 SE7       30.01F
BEAUFORT MCAS  MOSUNNY   83  68  60 SE6       30.00F
BEAUFORT ARPT  FAIR      81  68  65 SE8       30.00F
HILTON HEAD IS MOSUNNY   79  72  78 SE5       30.02S
WALTERBORO     CLEAR     84  61  45 SE13      30.01S
ALLENDALE      FAIR      86  61  42 SE14      29.96F

...SOUTHERN MIDLANDS AND PEE DEE...

CITY           SKY/WX    TMP DP  RH WIND       PRES   REMARKS
GEORGETOWN     MOCLDY    72  64  78 E12       30.06F
KINGSTREE      FAIR      81  64  57 E16       30.01S
ORANGEBURG     SUNNY     86  62  44 S16       29.98F
BARNWELL       FAIR      90  63  40 SE13      29.97S HX  90
AIKEN          MOCLDY    84  61  45 SE14      29.98F
MANNING        NOT AVBL
COLUMBIA       CLOUDY    88  62  41 S10       29.95F
SUMTER         MOSUNNY   83  65  53 S9        29.96F
FLORENCE       PTSUNNY   81  65  58 SE12      30.03S
MYRTLE BEACH   PTSUNNY   72  59  64 N15       30.09R
N MYRTLE BEACH CLOUDY    71  63  75 E12       30.08R

$$

GAZ063-065-086>088-099>101-113>116-118-119-134>141-150-302200-
...SOUTHEAST GEORGIA...

CITY           SKY/WX    TMP DP  RH WIND       PRES   REMARKS
SAVANNAH ARPT  PTSUNNY   84  66  54 E15       29.98F
HUNTER AAF     MOSUNNY   82  71  71 SE12      29.96F
FORT STEWART   MOSUNNY   84  68  58 E10G21    29.94F
STATESBORO     CLOUDY    90  62  38 SE7       29.95F HX  90
SYLVANIA       CLOUDY    88  65  46 SE8       29.97F
CLAXTON        FAIR      88  60  39 E6        29.94F

...CSRA...CENTRAL AND FAR SOUTHEAST GEORGIA...

CITY           SKY/WX    TMP DP  RH WIND       PRES   REMARKS
THOMSON        MOSUNNY   89  64  43 SE7G18    29.96F HX  90
AUGUSTA-BUSH   MOSUNNY   88  62  41 SE14G22   29.92F
AUGUSTA-DANIEL CLOUDY    88  61  40 SE10G21   29.94F
SWAINSBORO     FAIR      88  55  33 SE13      29.93F
VIDALIA        SUNNY     90  55  31 SE13      29.92F
EASTMAN        FAIR      87  60  39 SE9       29.94R
HAZLEHURST     FAIR      90  55  30 SE7       29.90F
ALMA           CLOUDY    88  55  32 SE9       29.91F
WAYCROSS       MOSUNNY   87  63  43 SE9       29.92S
JESUP          FAIR      88  64  45 S7        29.95S
BAXLEY         FAIR      90  52  27 SE9       29.91F
BRUNSWICK      CLOUDY    86  70  58 E15       29.97F HX  90
SAINT SIMONS   CLOUDY    78  73  84 E14       29.96F

$$

SCZ027-028-034-036>038-045-046-048>050-GAZ119-141-302200-
...LAKE AND SUPPLEMENTAL COASTAL OBSERVATIONS...

STATION/POSITION TIME  TEMP    WIND        PRES    WAVE   SWELL
                       AIR SEA DIR/SP/G            HT/PER HT/PER/DIR
                 (UTC) (F)     (DEG/KT/KT) (MB)    (FT/S) (FT/S/D)
WINYAH BAY       1945   70      70/ 12     1017.0
LAKE MURRAY      2000   83     150/ 10/ 14 1013.9F
ACE BASIN NERRS  NOT AVBL
FORT PULASKI     2000   75 73   60/ 10/ 11 1016.5F
SAPELO ISLAND    2000   85     120/  8     1015.0F

$$

ANZ835-935-AMZ111-154-330-350-352-354-370-450-454-472-302200-
...C-MAN AND BUOY OBSERVATIONS...

STATION/POSITION TIME  TEMP    WIND        PRES    WAVE   SWELL
                       AIR SEA DIR/SP/G            HT/PER HT/PER/DIR
                 (UTC) (F)     (DEG/KT/KT) (MB)    (FT/S) (FT/S/D)
BUOY 41004       2050   75 74  110/ 10/ 12 1016.2F   3/10   2/10
BUOY 41008       NOT AVBL
FOLLY BEACH CMAN 2100   74      90/  8/  9 1016.9F
CAPERS NEARSHORE 2008   74 73  110/  8/ 12 1016.7F
FRIPP NEARSHORE  2008   76 75  120/  6/  8 1015.9F


STATION/POSITION TIME  TEMP    WIND        PRES    WAVE   SWELL
                       AIR SEA DIR/SP/G            HT/PER HT/PER/DIR
                 (UTC) (F)     (DEG/KT/KT) (MB)    (FT/S) (FT/S/D)
5E ST. MARYS GA  2021      75                N/A     2/10
FRYING PAN BUOY  2000   70 70   50/ 16/ 17 1018.1S
BUOY 41025       2050   59 74   20/ 17/ 21 1020.5S   5/ 9   3/ 60/ 9
CAPE LOOKOUT NC  2000   62      40/ 18/ 18 1019.5F
BUOY 41002       2050   71      60/ 10/ 12 1018.0R   5/10   5/ 50/10
BUOY 41010       2020   77 78  150/  6/  6 1015.4F
ST AUGUSTINE FL  2100   75 74  130/ 13/ 14 1015.2F


$$




USA.gov is the U.S. government's official web portal to all federal, state and local government web resources and services.